[[{"header":{"parameterUnit":"m.s-1","parameterCategory":1,"la1":30.2992,"la2":30.254,"lo1":-89.0895,"lo2":-89.0443,"dy":0.0025,"dx":0.0025,"nx":19,"ny":19,"refTime":"2026-05-03T03:00:00:Z","depth":0,"parameterNumber":2,"parameterNumberName":"U-component_of_WINDS"},"data":[0,0,0,0.9056,0.9058,0.9184,0.9185,0.9326,0.9327,0,0,0,0,0,0,0,0,0,0,0,0.9007,0.9007,0.9056,0.9059,0.9184,0.9185,0.9326,0.9327,0,0,0,0,0,0,0,0,0,0,0,0.9007,0.9007,0.9008,0.9059,0.9184,0.9185,0.9326,0.9238,0,0,0,0,0,0,0,0,0,0,0.912,0.9062,0.9007,0.9008,0.906,0.9184,0.9185,0.9234,0.9244,0.9261,0,0.9273,0,0.9302,0.9336,0.9336,0,0,0,0.9068,0.9054,0.9099,0.9008,0.9061,0.9183,0.913,0.924,0.925,0.9273,0.9275,0.9281,0.9305,0.9336,0.9337,0.9405,0.9405,0,0,0.9061,0.9023,0.9091,0.9105,0.9084,0.9126,0.9134,0.9246,0.9246,0.9276,0.9285,0.9307,0.9337,0.9338,0.9405,0.9405,0,0,0,0.9035,0.9018,0.906,0.9099,0.9123,0.9129,0.9138,0.9241,0.9258,0.9286,0.9309,0.9338,0.9339,0.9405,0.9405,0.936,0,0,0,0.9031,0.9003,0.9057,0.9035,0.912,0.9183,0.913,0.925,0.9264,0.9308,0.9338,0.9341,0.9405,0.9405,0.9362,0.9346,0,0,0,0.9003,0.9,0.9014,0.9033,0.9085,0.9182,0.9206,0.9254,0.9277,0.9336,0.9341,0.9405,0.9405,0.9363,0.9348,0.9351,0,0,0,0.8962,0.8974,0.9012,0.9034,0.9084,0.9154,0.9206,0.9261,0.9306,0.9339,0.9405,0.9405,0.9364,0.935,0.9352,0.9345,0.9339,0,0,0.8956,0.8972,0.8988,0.9026,0.9079,0.9138,0.9186,0.9264,0.9305,0.9369,0.9372,0.9361,0.9348,0.9351,0.9321,0.9315,0,0,0,0.8973,0.8984,0.9006,0.9047,0.9106,0.9155,0.923,0.9259,0.9315,0.933,0.9365,0.9359,0.9362,0.936,0.9356,0.936,0.9403,0.9403,0.9403,0.891,0.896,0.8989,0.9055,0.9093,0.917,0.9206,0.9258,0.9299,0.9306,0.9325,0.93,0.9297,0.9294,0.9298,0.9327,0.9327,0.9327,0.9327,0.8904,0.8926,0.8979,0.9026,0.908,0.912,0.9194,0.9221,0.9267,0.9291,0.9296,0.9316,0.9286,0.9293,0.9324,0.9324,0.9325,0.9325,0.9325,0.8867,0.8886,0.892,0.8983,0.9026,0.9093,0.9133,0.9181,0.9227,0.9232,0.9256,0.9257,0.9263,0.9241,0.9241,0.9241,0.924,0.924,0.924,0.8814,0.8854,0.8881,0.8944,0.8975,0.9023,0.9099,0.9132,0.9181,0.9212,0.9213,0.9252,0.9275,0.9278,0.9239,0.9239,0.924,0.924,0.924,0.8786,0.88,0.8842,0.8873,0.895,0.8988,0.905,0.9112,0.9146,0.9164,0.9202,0.9212,0.9232,0.9236,0.9239,0.9192,0.9192,0.9192,0.9192,0.8753,0.8768,0.8821,0.8867,0.8919,0.8978,0.9024,0.9083,0.9146,0.917,0.9185,0.9194,0.9195,0.9214,0.9219,0.9222,0.9172,0.9172,0.9172,0.8738,0.876,0.8789,0.885,0.8913,0.8967,0.9011,0.9062,0.9138,0.9173,0.919,0.9191,0.9206,0.9208,0.9242,0.9248,0.9255,0,0]},{"header":{"parameterUnit":"m.s-1","parameterCategory":1,"la1":30.2992,"la2":30.254,"lo1":-89.0895,"lo2":-89.0443,"dy":0.0025,"dx":0.0025,"nx":19,"ny":19,"refTime":"2026-05-03T03:00:00:Z","depth":0,"parameterNumber":3,"parameterNumberName":"V-component_of_WINDS"},"data":[0,0,0,1.278,1.278,1.2768,1.2768,1.2768,1.2768,0,0,0,0,0,0,0,0,0,0,0,1.2795,1.2795,1.278,1.278,1.2768,1.2768,1.2767,1.2768,0,0,0,0,0,0,0,0,0,0,0,1.2794,1.2795,1.2795,1.278,1.2768,1.2768,1.2767,1.2771,0,0,0,0,0,0,0,0,0,0,1.278,1.2805,1.2795,1.2795,1.278,1.2768,1.2768,1.2771,1.2771,1.278,0,1.2793,0,1.278,1.2769,1.2769,0,0,0,1.2771,1.2805,1.2792,1.2796,1.278,1.2768,1.2771,1.277,1.277,1.278,1.2793,1.2792,1.278,1.2769,1.2769,1.2853,1.2854,0,0,1.2772,1.2798,1.2792,1.2792,1.2797,1.2772,1.2771,1.277,1.2785,1.2793,1.2792,1.278,1.2769,1.2769,1.2852,1.2853,0,0,0,1.278,1.2799,1.2785,1.2793,1.2789,1.2771,1.2771,1.2785,1.2779,1.2792,1.278,1.2769,1.2769,1.2851,1.2853,1.2915,0,0,0,1.278,1.2804,1.2786,1.2802,1.279,1.2788,1.2786,1.2779,1.2778,1.278,1.2769,1.2769,1.2851,1.2852,1.2912,1.294,0,0,0,1.2792,1.2805,1.2807,1.2804,1.28,1.2787,1.278,1.2778,1.2771,1.2769,1.2769,1.285,1.2852,1.2908,1.2934,1.2966,0,0,0,1.2812,1.2865,1.2809,1.2863,1.28,1.2827,1.278,1.2799,1.2805,1.2769,1.2851,1.2853,1.2907,1.2931,1.2963,1.2996,1.3013,0,0,1.2893,1.2876,1.2905,1.2855,1.2898,1.2827,1.2879,1.286,1.2836,1.2848,1.285,1.2913,1.2934,1.2966,1.3106,1.3119,0,0,0,1.294,1.2961,1.2967,1.2974,1.296,1.2949,1.2919,1.2911,1.292,1.2848,1.2934,1.2946,1.2963,1.2977,1.2989,1.3,1.2861,1.2861,1.2861,1.3091,1.3057,1.3102,1.3066,1.3073,1.304,1.3041,1.3024,1.299,1.301,1.3013,1.3102,1.312,1.3128,1.3141,1.303,1.303,1.3031,1.3031,1.3204,1.3227,1.3177,1.3203,1.3166,1.3187,1.3156,1.313,1.3142,1.3098,1.3112,1.3063,1.3144,1.3153,1.3035,1.3034,1.3034,1.3033,1.3033,1.3296,1.3301,1.3291,1.3294,1.33,1.3262,1.3275,1.3241,1.321,1.3223,1.3219,1.3218,1.321,1.3225,1.3225,1.3225,1.3225,1.3226,1.3226,1.3394,1.3381,1.3397,1.3385,1.3383,1.3375,1.3342,1.3338,1.3325,1.3299,1.3298,1.3258,1.316,1.3134,1.323,1.323,1.3229,1.3229,1.3228,1.3515,1.3482,1.3507,1.3504,1.3486,1.3491,1.3449,1.3443,1.3436,1.3442,1.3399,1.3334,1.3313,1.3303,1.3281,1.3409,1.3409,1.3409,1.3409,1.359,1.3577,1.3592,1.359,1.3584,1.3547,1.3572,1.3545,1.3512,1.3504,1.3481,1.345,1.3442,1.3426,1.3413,1.3392,1.3545,1.3546,1.3546,1.366,1.3645,1.3673,1.3641,1.3623,1.3608,1.3629,1.3626,1.3582,1.355,1.3496,1.349,1.344,1.3426,1.3391,1.3372,1.3332,0,0]}]]